ICON

Last updated on Wed Jun 28 2023 00:03:33 GMT+0000 (Coordinated Universal Time)

1 44628U 19068A 23177.85845188 .00004660 00000+0 39157-3 0 9998 2 44628 26.9898 17.5258 0017806 107.8479 252.4023 14.95481816202609

Satellite not in orbit

ICON